Погода в Джаркургане

Узбекистан     37°30′30″N   67°24′49″E
темп.,
°C
ветер,
м/с
пор.,
м/с
влажн.,
%
обл.,
%
осадки,
мм/ч
давл.,
гПа
погр.,
м
3 марта, ср
ср323:00+15с3342100 0.0 102346
02:00+14ссв5744100 0.0 1022164
05:00+12ссв5764100 0.3 1022229
08:00+12ссв356092 0.0 1022177
11:00+15зюз325288 0.0 10221094
14:00+16з114678 0.0 10211461
17:00+17св224348 0.0 10191474
20:00+14св58560 0.0 1020207
4 марта, чт
чт423:00+12ссв710630 0.0 1020215
02:00+11св58660 0.0 1019171
05:00+11св466310 0.0 101897
08:00+12св345818 0.0 101890
11:00+18св45398 0.0 1018775
14:00+20всв223231 0.0 10171321
17:00+20зюз342966 0.0 10171335
20:00+17юз684299 0.1 1020254
5 марта, пт
пт523:00+14юз125789 0.1 102323
02:00+12ю467455 1.3 1025148
05:00+11юз686564 1.9 1025211
08:00+9юз710670 0.0 1027321
11:00+13юз32540 0.0 1026566
14:00+16вюв33430 0.0 1022922
17:00+18всв56410 0.0 10191436
20:00+15всв465667 0.0 1018115
6 марта, сб
сб623:00+13св476181 0.0 1015144
02:00+13св5749100 0.0 1012120
05:00+12ссв1247100 0.0 100823
08:00+14ссз1145100 0.0 100723
11:00+18св2326100 0.0 1009504
14:00+14юз9116099 0.1 1010630
17:00+11зюз9138199 2.1 1015590
20:00+11зюз101358100 0.8 1019720
7 марта, вс
вс723:00+8юз11166779 0.8 1022640
02:00+7зюз111568100 0.0 1021603
05:00+7юз61066100 0.0 1022476
08:00+6юз4775100 0.0 1023358
11:00+9юв1164100 0.0 1023797
14:00+11всв3353100 0.0 10201144
17:00+13всв344767 0.0 10181418
20:00+10всв356211 0.0 1018115